Погода в Кутаиси

Погода в Кутаиси : погода сейчас, прогноз погоды и архив. Всё, что Вы хотите узнать о погоде в Кутаиси!

Поиск расширенной информации на нашем сайте:

Другие новости

Новости СМИ2

Главная страница сайта

Новости сайта

02.10.2013

Напоминаем, что на нашем новом сайте вы можете получить высокодетализированные прогнозы погоды по пунктам России, СНГ и мира (включающие важные для авиации метеовеличины, такие как направление и скорость ветра, видимость, явления погоды, количество и форма облачности, нижняя и верхняя граница облачности), а также ознакомиться с разнообразными материалами по авиационной метеорологии и подборкой полезных ссылок на эту тему.

Сайт Метеоцентр.Азия посвящён разработке технологий оптимизации авиаметеорологического обслуживания, включая проектирование и перспективное создание нескольких автоматизированных авиаметеорологических систем:
- система выпуска высокодетальных прогностических карт явлений погоды для нижнего воздушного пространства по России и ближнему зарубежью;
- система верификации прогнозов TAF (выпускаемых синоптиками официальных АМСГ РФ и ближнего зарубежья) и AUTOTAF (выпускаемых сайтом Метеоцентр.Азия) - выявление ошибок, онлайн-сопоставление с фактической погодой METAR, автоматическое внесение коррективов в прогнозы при резком отклонении фактической погоды от прогноза, подсчёт оправдываемости прогнозов по элементам и в целом;
- система обработки, анализа и отображения авиаметеорологической информации для применения провайдерами метеорологической информации.

Рекомендуем: Киноманы могут смотреть ужасы онлайн бесплатно в хорошем качестве

Погода в Кутаиси - сегодня

Время (UTC), дата Ветер
(°,м/с) 
Видим.   Явления Облачность Т
(°С)
Тd
(°С)
f(%) Тe
(°С)
Pmin
(гПа)
dP
(гПа)
Po
(мм)
O2
(г/м3)
Тmin Tmax R s Состояние
почвы
12 25.05.17 310 (СЗ) н/о    н/о 
+22.9 +8.8 41 +23  1017.1  -0.5  753  278           
15 25.05.17 тихо ()   20000 м    3/0 средняя 
[Ac trans]
+23.2 +11 46 +26  1016.3  -0.5  752  277    +23.6       
21 25.05.17 090 (В) 10 км    ясно 
+14.2 +8.9 70 +14  1017  0.2  752  287           
00 26.05.17 090 (В) 10 км    ясно 
+13.1 +7.6 69 +13  1016.3  -0.7  752  288           
03 26.05.17 090 (В) 20000 м    4/0 средняя 
[Ac trans]
+14.8 +7.3 61 +15  1015.8  -0.5  752  286           
06 26.05.17 090 (В) 20000 м    9/0 средняя 
[Ac trans]
+21 +10.9 52 +23  1014.2  -1.2  751  279  +12.6         
09 26.05.17 090 (В) 20000 м    9/3 1500 м средняя 
[Cu hum|Ac trans]
+26 +14.1 48 +33  1012.4  -1.6  749  273           
12 26.05.17 090 (В) 20000 м    6/3 1500 м средняя 
[Cu hum|Ac trans]
+28.8 +15.3 44 +38  1010.8  -1.4  748  270           
21 26.05.17 090 (В) 10 км    6/0 средняя 
[Ac trans]
+17.4 +14.1 81 +25  1013.1  -0.7  750  281           
00 27.05.17 090 (В) 10 км    6/0 средняя 
[Ac trans]
+17.2 +14.4 84 +26  1012  -1.1  749  281           
03 27.05.17 090 (В) 20000 м    9/0 средняя 
[Ac trans]
+18 +13.6 75 +25  1011  -1  748  280           
09 27.05.17 270 (З) 20000 м    8/4 1500 м средняя 
[Sc|Ac trans]
+21.8 +16.7 73 +34  1011.5  749  276           
12 27.05.17 240 (ЮЗ) 20000 м    5/4 1500 м средняя 
[Cu med, cong|Ac trans]
+25 +18.2 66 +40  1009.7  -1.5  748  272           
21 27.05.17 тихо ()   10 км    6/4 1000 м средняя 
[Sc|Ac trans]
+14.4 +13.5 94 +21  1015.1  751  285           
00 28.05.17 тихо ()   10 км    8/4 1000 м средняя 
[Sc|Ac trans]
+13.8 +13 95 +19  1014.5  -0.7  751  285           
03 28.05.17 тихо ()   20000 м    9/5 1000 м средняя 
[Sc|Ac trans]
+14 +13.2 95 +20  1015.5  751  285           
09 28.05.17 270 (З) 20000 м    10/6 600 м средняя 
[Sc|As op]
+18.6 +15.1 80 +28  1015.6  0.6  752  280           
12 28.05.17 270 (З) 20000 м    10/6 600 м средняя 
[Sc|As op]
+18.6 +15.1 80 +29  1016.8  1.1  752  281           
21 28.05.17 тихо ()   10 км    6/4 1500 м средняя 
[Sc|Ac trans]
+13.2 +12.5 96 +18  1020.6  0.9  755  288           
00 29.05.17 090 (В) 10 км    4/0 средняя 
[Ac trans]
+12.6 +12.1 97 +18  1019.3  -1.3  754  288           
03 29.05.17 090 (В) 20000 м    4/0 средняя 
[Ac trans]
+12.8 +11.7 93 +17  1018.6  -0.7  754  288           
09 29.05.17 270 (З) 20000 м    ясно 
+24 +16.5 63 +35  1016.7  -1.7  753  275           
12 29.05.17 270 (З) 20000 м    4/0 средняя 
[Ac trans]
+27.2 +19 61 +44  1014  -2.5  751  271           
21 29.05.17 тихо ()   10 км  гроза без осадков  9/6 1000 м средняя 
[Sc|Ac trans]
+16.2 +15.5 96 +26  1015.9  0.7  752  283           
00 30.05.17 090 (В) 10 км  {гроза, ливн. осадки}  6/0 средняя 
[Ac trans]
+19 +15.1 78 +28  1016.3  0.4  752  280           
Время (UTC), дата Ветер
(°,м/с) 
Видим.   Явления Облачность Т
(°С)
Тd
(°С)
f(%) Тe
(°С)
Pmin
(гПа)
dP
(гПа)
Po
(мм)
O2
(г/м3)
Тmin Tmax R s Состояние
почвы

Для получения пояснительной информации подведите курсор к названию столбца.

ПОГОДА в Кутаиси - архив

Всё, что Вы хотите узнать о погоде в Кутаиси - удобно и подробно!

Выберите нужную дату (начиная с 1 января 2015* года) и нажмите кнопку "Найти".
Будут отображены архивные сводки погоды по пункту Кутаиси, начиная с указанной даты.


Отображать данные в формате CSV (для использования в таблицах Excel)


Внимание! Наш архив погоды предназначен исключительно для личного некоммерческого использования в познавательных целях. Если Вам необходимы официальные справки о состоянии погоды (для производственных, юридических, коммерческих и т.п. целей), обращайтесь в органы Росгидромета.

*Примечание: данная дата относится к архиву по метеостанциям СССР (Россия, СНГ, Балтия).
Архив по метеостанциям Зарубежной Европы и Азии (кроме Китая) хранится 10 дней, по другим регионам земного шара (Китай, Африка, Америка, Австралия, Океания) - 1 день.

Кутаиси - район местоположения метеостанции


Название, широта, долгота, высота метеостанции:
Кутаиси 42.3°ш. 42.6°д. 116 м над ур. моря [Грузия]

Дополнительная информация

В oтличие oт бoльшинства пoгoдных сайтoв мы публикуем пoдрoбную метеoинфoрмацию в детальнoм прoфессиoнальнoм фoрмате.

Характеристики температуры и влажнoсти вoздуха измеряются на высoте 2 м в тени вдали oт зданий и деревьев.
Скoрoсть ветра измеряется на высoте 10 м (на урoвне рoста челoвека скoрoсть ветра ниже в 1.5-2 раза). Если метеoстанция нахoдится в гoрoде или в лесу, тo скoрoсть ветра занижена на 2-4 м/с пo сравнению с oткрытым местoм. Скoрoсть ветра над акватoриями крупных рек и oзёр, а также на вершинах хoлмoв на 2-5 м/с выше, чем в oбычных услoвиях.
Атмoсфернoе давление в разных тoчках местнoсти мoжет значительнo oтличаться oт давления на метеoстанции, в зависимoсти oт услoвий рельефа (при пoдъёме на 10 м давление пoнижается примернo на 1 мм рт.ст.).